TimeMST,TemperatureF,Dew PointF,Humidity,Sea Level PressureIn,VisibilityMPH,Wind Direction,Wind SpeedMPH,Gust SpeedMPH,PrecipitationIn,Events,Conditions,WindDirDegrees,DateUTC
12:15 AM,21.2,17.6,86,29.85,10.0,ESE,23.0,28.8,N/A,,Overcast,120,2013-03-07 07:15:00
12:53 AM,19.9,17.1,89,29.97,10.0,ESE,15.0,-,N/A,,Mostly Cloudy,120,2013-03-07 07:53:00
1:41 AM,19.4,17.6,93,29.85,10.0,ESE,13.8,-,N/A,,Mostly Cloudy,110,2013-03-07 08:41:00
1:53 AM,19.9,17.1,89,29.96,10.0,ESE,15.0,-,N/A,,Mostly Cloudy,110,2013-03-07 08:53:00
2:03 AM,19.4,17.6,93,29.84,10.0,ESE,11.5,-,N/A,,Scattered Clouds,110,2013-03-07 09:03:00
2:44 AM,19.4,17.6,93,29.83,10.0,ESE,12.7,-,N/A,,Mostly Cloudy,110,2013-03-07 09:44:00
2:53 AM,21.0,18.0,88,29.94,10.0,ESE,10.4,-,N/A,,Overcast,110,2013-03-07 09:53:00
3:24 AM,21.2,17.6,86,29.84,10.0,ESE,9.2,-,N/A,,Overcast,120,2013-03-07 10:24:00
3:53 AM,19.9,18.0,92,29.94,10.0,ESE,9.2,-,N/A,,Overcast,120,2013-03-07 10:53:00
4:27 AM,19.4,17.6,93,29.84,10.0,East,8.1,-,N/A,,Scattered Clouds,100,2013-03-07 11:27:00
4:53 AM,19.0,17.1,92,29.96,9.0,ESE,5.8,-,N/A,,Scattered Clouds,110,2013-03-07 11:53:00
5:06 AM,19.4,15.8,86,29.85,9.0,ESE,5.8,-,N/A,,Mostly Cloudy,110,2013-03-07 12:06:00
5:32 AM,19.4,15.8,86,29.85,9.0,ESE,8.1,-,N/A,,Scattered Clouds,120,2013-03-07 12:32:00
5:53 AM,19.0,16.0,88,29.97,8.0,ESE,6.9,-,N/A,,Clear,120,2013-03-07 12:53:00
6:53 AM,19.0,16.0,88,30.00,6.0,SE,3.5,-,N/A,,Clear,140,2013-03-07 13:53:00
7:53 AM,19.9,18.0,92,30.02,6.0,Calm,Calm,-,N/A,,Clear,0,2013-03-07 14:53:00
8:34 AM,23.0,19.4,86,29.91,7.0,Calm,Calm,-,N/A,,Scattered Clouds,0,2013-03-07 15:34:00
8:48 AM,24.8,21.2,86,29.93,8.0,WSW,5.8,-,N/A,,Mostly Cloudy,240,2013-03-07 15:48:00
8:53 AM,24.1,21.0,88,30.04,8.0,SW,5.8,-,N/A,,Mostly Cloudy,230,2013-03-07 15:53:00
9:19 AM,26.6,21.2,80,29.92,10.0,West,6.9,-,N/A,,Scattered Clouds,270,2013-03-07 16:19:00
9:53 AM,28.0,21.9,78,30.02,10.0,West,4.6,-,N/A,,Clear,280,2013-03-07 16:53:00
10:53 AM,30.9,23.0,72,30.04,10.0,WNW,9.2,-,N/A,,Clear,290,2013-03-07 17:53:00
11:53 AM,35.1,26.1,70,30.04,10.0,WNW,8.1,-,N/A,,Clear,300,2013-03-07 18:53:00
12:53 PM,37.9,27.0,65,30.05,10.0,WNW,9.2,-,N/A,,Clear,300,2013-03-07 19:53:00
1:53 PM,41.0,28.0,60,30.05,10.0,WNW,9.2,-,N/A,,Clear,290,2013-03-07 20:53:00
2:53 PM,42.1,28.9,60,30.06,10.0,NW,13.8,-,N/A,,Clear,320,2013-03-07 21:53:00
3:53 PM,39.9,30.0,68,30.08,10.0,NNW,13.8,-,N/A,,Clear,330,2013-03-07 22:53:00
4:53 PM,36.0,28.0,73,30.12,10.0,NNW,12.7,-,N/A,,Partly Cloudy,340,2013-03-07 23:53:00
5:30 PM,33.8,26.6,75,30.04,10.0,NW,9.2,-,N/A,,Mostly Cloudy,320,2013-03-08 00:30:00
5:53 PM,32.0,27.0,82,30.15,10.0,NNW,8.1,-,N/A,,Mostly Cloudy,330,2013-03-08 00:53:00
6:07 PM,30.2,26.6,86,30.05,10.0,NNW,4.6,-,N/A,,Scattered Clouds,330,2013-03-08 01:07:00
6:53 PM,28.0,25.0,88,30.17,10.0,North,4.6,-,N/A,,Clear,360,2013-03-08 01:53:00
7:53 PM,27.0,24.1,89,30.20,10.0,Calm,Calm,-,N/A,,Clear,0,2013-03-08 02:53:00
8:53 PM,28.0,25.0,88,30.20,10.0,Calm,Calm,-,N/A,,Clear,0,2013-03-08 03:53:00
9:53 PM,27.0,24.1,89,30.21,10.0,Calm,Calm,-,N/A,,Clear,0,2013-03-08 04:53:00
10:53 PM,26.1,23.0,88,30.22,9.0,Calm,Calm,-,N/A,,Clear,0,2013-03-08 05:53:00
11:53 PM,27.0,25.0,92,30.22,10.0,Calm,Calm,-,N/A,,Overcast,0,2013-03-08 06:53:00